Regional Weather Roundup
Issued by NWS

Home | Current Version | Previous Version | Graphics & Text | Print | Product List | Glossary On
Versions: 1 2 3 4 5 6 7 8 9 10 11 12 13 14 15 16 17 18 19 20 21 22 23 24 25 26 27 28 29 30 31 32 33 34 35 36 37 38 39 40 41 42 43 44 45 46 47 48 49 50
000
ASUS43 KDMX 280308
RWRIA

WEATHER ROUNDUP FOR IOWA
NATIONAL WEATHER SERVICE DES MOINES IA
1000 PM CDT FRI MAY 27 2016

NOTE: "FAIR" INDICATES FEW OR NO CLOUDS BELOW 12,000 FEET WITH NO
SIGNIFICANT WEATHER AND/OR OBSTRUCTIONS TO VISIBILITY.

* - THESE STATIONS ARE NOT NWS STATIONS...THUS NOT UNDER NWS
QUALITY CONTROL.  THEY ALSO DO NOT REPORT WEATHER SUCH
AS PRECIPITATION OR FOG.

IAZ001>003-012>014-020>022-031>034-043>046-280400-
   NORTHWEST IOWA

CITY           SKY/WX    TMP DP  RH WIND       PRES   REMARKS
CARROLL *      CLOUDY    70  64  83 SE9       29.73S
CHEROKEE *     CLOUDY    66  63  88 CALM      29.72R
DENISON *      CLOUDY    68  64  88 SE7G16    29.70S
LE MARS *      PTCLDY    70  63  78 CALM      29.73R
ORANGE CITY *  CLEAR     72  57  60 CALM      29.73R
SHELDON *      PTCLDY    68  61  77 NE6       29.71R
SIOUX CITY     CLOUDY    73  59  61 CALM      29.71R
SPENCER        CLOUDY    67  59  75 N7        29.73R
STORM LAKE *   MOCLDY    70  59  68 S7        29.74R
$$

IAZ055>058-069>071-079>083-090>094-280400-
   SOUTHWEST IOWA

CITY           SKY/WX    TMP DP  RH WIND       PRES   REMARKS
ATLANTIC *     CLOUDY    70  64  83 SE7       29.73R
AUDUBON *      CLEAR     70  63  78 SE5       29.74S
CLARINDA *       N/A     68  66  94 MISG      29.77R
COUNCIL BLFS * CLOUDY    70  64  83 SE12      29.74R
CRESTON *      CLOUDY    68  64  88 E7        29.77R
HARLAN  *      MOCLDY    70  64  83 SE6       29.77R
LAMONI         LGT RAIN  66  64  93 E5        29.76R
RED OAK *      CLOUDY    68  66  94 S7        29.75R
SHENANDOAH *   CLOUDY    68  68 100 E6        29.75R
$$

IAZ047>049-059>061-072>074-084-280400-
   CENTRAL IOWA

CITY           SKY/WX    TMP DP  RH WIND       PRES   REMARKS
AMES           CLOUDY    69  63  81 SE6       29.74R
ANKENY *       LGT RAIN  70  66  88 SE7       29.76R
BOONE *        MOCLDY    68  64  88 E5        29.73S
CHARITON *     LGT RAIN  68  66  94 CALM      29.77R
DES MOINES     LGT RAIN  71  64  78 SE8       29.76R
GRINNELL*      LGT RAIN  70  64  83 SE3       29.77R
KNOXVILLE *    CLOUDY    70  64  83 CALM      29.76R
MARSHALLTOWN   CLOUDY    68  64  87 SE7       29.75R
NEWTON *       CLOUDY    68  66  94 S5        29.76R
PELLA *        LGT RAIN  68  66  94 CALM      29.78R
PERRY *          N/A     70  66  88 S6        29.74R
$$

IAZ004>006-015-016-023>025-035-036-280400-
   NORTH CENTRAL IOWA

CITY           SKY/WX    TMP DP  RH WIND       PRES   REMARKS
ALGONA *       MOCLDY    70  63  78 E6        29.75R
CLARION *      CLEAR     68  64  88 E5        29.75R
ESTHERVILLE    CLOUDY    66  60  81 NE10      29.74R
FORT DODGE *   MOCLDY    70  61  73 SE5       29.75R
MASON CITY     MOCLDY    65  63  93 E5        29.77R
FOREST CITY *  CLEAR     63  61  94 SE3       29.76R
WEBSTER CITY *   N/A     68  64  88 SE7       29.72R
IOWA FALLS *     N/A     70  63  78 E6        29.75S
$$

IAZ007>011-017>019-026>030-037>042-050>054-066-280400-
   NORTHEAST IOWA

CITY           SKY/WX    TMP DP  RH WIND       PRES   REMARKS
CEDAR RAPIDS   LGT RAIN  64  64 100 E6        29.76S
CHARLES CITY * MOCLDY    68  66  94 NE5       29.76R
CLINTON *      CLOUDY    73  68  84 S10       29.78R
DECORAH *      CLEAR     66  66 100 CALM      29.75R FOG
DUBUQUE        MOCLDY    71  67  87 SE10      29.78R
MONTICELLO *   CLOUDY    68  63  83 S7        29.77R
OELWEIN *      CLOUDY    68  66  94 E6        29.77R
WATERLOO       CLOUDY    66  63  90 CALM      29.74R
$$

IAZ064-065-067-068-078-280400-
   EAST CENTRAL IOWA

CITY           SKY/WX    TMP DP  RH WIND       PRES   REMARKS
DAVENPORT      PTCLDY    73  67  81 S10       29.78R
IOWA CITY      TSTM      66  62  87 VRB5      29.79R FOG
MT. PLEASANT * RAIN      75  72  88 SE13      29.76R
MUSCATINE *    PTCLDY    75  68  78 S10       29.77R
QUAD CITIES    MOCLDY    74  67  78 S8        29.77R
$$

IAZ062-063-075>077-085>089-095>099-280400-
   SOUTHEAST IOWA

CITY           SKY/WX    TMP DP  RH WIND       PRES   REMARKS
BURLINGTON     CLOUDY    73  69  87 SE10      29.76R
FAIRFIELD *      N/A    N/A N/A N/A MISG        N/A
FORT MADISON * CLOUDY    72  70  94 SE10      29.77R
KEOKUK *       LGT RAIN  72  70  94 S9        29.76R
OSKALOOSA *    LGT RAIN  66  63  88 E5        29.77R
OTTUMWA        LGT RAIN  67  66  97 E6        29.77R
WASHINGTON *   LGT RAIN  66  66 100 N15       29.78R
$$

ABBREVIATIONS USED IN REMARKS
   TC - TEMPERATURES IN CELSIUS
  WCI - WIND CHILL INDEX
   HX - HEAT INDEX
  VSB - VISIBILITY
$$





USA.gov is the U.S. government's official web portal to all federal, state and local government web resources and services.